Date,TemperatureHighF,TemperatureAvgF,TemperatureLowF,DewpointHighF,DewpointAvgF,DewpointLowF,HumidityHigh,HumidityAvg,HumidityLow,PressureMaxIn,PressureMinIn,WindSpeedMaxMPH,WindSpeedAvgMPH,GustSpeedMaxMPH,PrecipitationSumIn
2013-1-1,15,12,10,6,4,3,73,71,68,29.13,29.12,0,0,0,0.00
2013-1-2,26,25,20,19,18,15,79,74,71,29.22,29.17,3,1,3,0.00
2013-1-3,28,26,18,24,20,12,86,80,73,29.20,29.09,6,2,6,0.00
2013-1-4,31,27,23,22,20,18,83,75,67,29.22,29.05,6,2,6,0.01
2013-1-5,34,29,20,27,24,16,86,81,76,29.32,29.08,11,4,11,0.00
2013-1-6,35,34,31,32,30,26,87,86,81,29.30,28.97,4,2,4,0.00
2013-1-7,36,31,27,26,24,22,82,75,66,29.41,29.20,12,6,12,0.04
2013-1-8,37,34,26,29,27,21,83,76,71,29.28,29.20,8,4,8,0.02
2013-1-9,44,40,34,33,28,24,79,63,49,29.45,29.14,10,5,10,0.11
2013-1-10,41,34,22,31,28,18,84,79,67,29.62,29.25,6,2,6,0.05
2013-1-11,52,44,35,49,41,30,94,90,84,29.23,28.84,7,4,7,0.84
2013-1-13,39,36,31,36,34,28,92,91,89,29.04,28.91,6,2,6,0.17
2013-1-14,28,23,16,24,17,12,85,78,73,29.46,29.11,3,2,3,0.00
2013-1-15,31,25,14,22,19,10,86,76,68,29.47,29.22,2,1,2,0.01
2013-1-16,22,22,22,18,18,18,86,86,86,29.00,29.00,2,2,2,0.00
2013-1-17,33,27,18,22,18,9,81,68,61,29.34,29.18,8,3,8,0.00
2013-1-18,33,32,32,22,22,22,66,66,66,29.03,29.02,9,7,9,0.00
2013-1-20,17,17,16,6,6,6,64,62,61,29.21,29.20,6,2,6,0.00
2013-1-21,17,12,3,10,4,-5,81,68,57,29.12,28.99,5,2,5,0.00
2013-1-22,11,6,-1,1,-2,-9,75,68,59,29.29,29.25,6,2,6,0.00
2013-1-23,19,14,2,10,6,-4,76,70,65,29.27,29.11,5,2,5,0.00
2013-1-24,18,14,7,7,4,1,82,65,51,29.60,29.51,5,2,5,0.01
2013-1-25,25,21,16,17,14,10,80,75,69,29.25,29.05,6,2,6,0.00
2013-1-26,22,22,21,17,16,16,82,81,80,29.27,29.25,2,2,2,0.00
2013-1-27,28,26,25,24,22,19,87,83,79,29.34,29.18,7,3,7,0.00
2013-1-28,44,39,34,42,37,32,93,91,89,29.08,28.91,6,2,6,0.12
2013-1-29,55,47,32,53,45,29,95,93,89,29.09,28.57,16,5,16,0.71
2013-1-30,56,49,34,54,47,31,93,91,87,28.55,28.22,14,5,14,0.58
2013-1-31,24,21,17,17,15,11,86,75,62,28.88,28.63,10,3,10,0.00
2013-2-1,21,18,14,10,9,7,82,69,61,29.24,28.93,6,3,6,0.00
2013-2-3,23,16,15,15,9,7,74,72,70,29.04,28.90,4,1,4,0.00
2013-2-4,28,23,15,20,16,7,82,76,71,29.04,28.93,2,0,2,0.00
2013-2-5,28,25,19,24,19,15,88,77,63,28.99,28.86,6,3,6,0.00
2013-2-6,32,26,9,20,17,5,84,69,57,29.33,29.27,4,2,4,0.10
2013-2-10,37,36,35,34,30,28,87,80,72,28.93,28.79,7,4,7,0.09
2013-2-11,39,35,31,31,27,26,80,73,68,28.90,28.65,9,5,9,0.00
2013-2-12,33,31,29,26,24,23,80,74,69,29.09,28.91,5,2,5,0.00
2013-2-13,39,33,27,27,24,21,80,70,59,28.89,28.80,4,2,4,0.00
2013-2-14,39,36,32,34,32,29,88,85,81,28.82,28.74,9,5,9,0.00
2013-2-15,30,27,24,17,16,14,70,61,54,29.14,29.07,7,3,7,0.00
2013-2-16,18,17,17,12,12,12,80,80,80,29.09,29.08,0,0,0,0.00
2013-2-17,20,18,18,8,7,7,64,62,59,29.23,29.22,2,1,2,0.00
2013-2-18,40,34,21,33,24,15,75,66,56,29.11,28.76,13,5,13,0.01
2013-2-19,32,26,18,28,20,11,87,78,70,28.94,28.62,7,4,7,0.00
2013-2-20,22,21,16,14,12,9,76,69,64,29.27,29.11,10,4,10,0.00
2013-2-21,28,23,19,16,14,13,78,70,61,29.42,29.35,4,2,4,0.01
2013-2-22,32,30,24,29,25,20,89,81,78,29.06,28.95,5,2,5,0.00
2013-2-23,33,32,31,25,25,25,78,76,73,28.95,28.95,2,2,2,0.00
2013-2-24,31,24,19,25,18,13,82,79,77,29.20,29.04,3,1,3,0.00
2013-2-25,43,35,14,28,24,9,83,67,53,29.28,29.20,5,1,5,0.05
2013-2-26,38,34,30,30,27,23,90,74,64,29.04,28.68,5,2,5,0.12
2013-2-27,37,36,33,34,33,31,91,87,86,28.62,28.58,4,2,4,0.24
2013-2-28,37,35,32,33,31,29,92,86,80,28.87,28.69,6,3,6,0.19
2013-3-1,26,25,24,21,20,20,82,80,78,29.15,29.11,8,3,8,0.00
2013-3-3,26,23,20,18,15,13,74,72,69,29.09,29.07,2,0,2,0.00
2013-3-4,36,28,10,19,16,6,83,62,48,29.19,29.14,3,1,3,0.09
2013-3-5,38,32,24,25,23,19,82,69,58,29.11,28.91,5,2,5,0.07
2013-3-6,42,36,31,31,28,26,81,72,64,29.26,29.12,5,2,5,0.02
2013-3-7,36,33,28,30,26,19,87,75,66,29.44,29.32,5,2,5,0.01
2013-3-8,47,37,19,31,26,15,85,64,50,29.54,29.46,3,1,3,0.00
2013-3-9,39,35,30,31,29,26,85,79,71,29.41,29.39,4,2,4,0.00
2013-3-10,53,52,52,40,40,40,63,62,61,28.92,28.88,10,5,10,0.00
2013-3-11,52,47,39,46,44,34,91,88,62,28.88,28.56,9,4,9,0.43
2013-3-12,37,34,29,30,28,24,83,77,71,28.97,28.87,8,3,8,0.00
2013-3-13,32,28,25,25,20,14,83,70,61,29.22,28.96,10,5,10,0.01
2013-3-14,41,33,24,23,20,14,76,58,45,29.30,29.14,7,2,7,0.02
2013-3-15,38,35,29,32,28,19,83,76,61,29.13,28.93,5,2,5,0.01
2013-3-17,27,24,20,14,13,12,69,63,59,29.30,29.26,1,0,1,0.00
2013-3-18,35,31,20,31,26,12,90,81,70,29.25,28.64,5,2,5,0.02
2013-3-19,34,26,24,30,19,16,87,75,68,28.98,28.68,8,4,8,0.00
2013-3-20,30,25,17,17,15,11,77,66,55,28.99,28.94,9,3,9,0.00
2013-3-21,31,28,20,25,22,16,84,76,70,28.98,28.90,8,3,8,0.02
2013-3-22,40,32,25,24,21,18,77,65,50,29.08,28.98,6,2,6,0.01
2013-3-23,28,28,28,21,21,20,73,73,73,29.08,29.07,0,0,0,0.00
2013-3-28,52,43,32,30,27,22,76,54,39,29.32,29.28,6,2,6,0.00
2013-3-29,55,45,31,26,24,23,70,46,31,29.34,29.26,2,1,2,0.00
2013-3-31,45,45,45,39,38,37,79,75,72,28.77,28.75,7,5,7,0.00
2013-4-1,41,33,27,33,18,13,77,55,41,29.14,28.77,8,5,8,0.02
2013-4-2,41,35,23,18,15,13,72,46,34,29.21,29.14,8,4,8,0.00
2013-4-3,44,36,31,16,15,13,52,43,33,29.47,29.43,6,4,6,0.00
2013-4-4,60,48,30,23,20,17,60,35,21,29.30,29.02,7,3,7,0.00
2013-4-5,49,42,33,25,20,18,66,43,32,29.27,29.02,8,3,8,0.00
2013-4-6,35,35,35,19,19,19,51,51,51,29.28,29.28,2,2,2,0.00
2013-4-7,41,39,37,30,29,28,71,68,65,29.10,29.09,0,0,0,0.00
2013-4-8,64,49,34,55,42,30,88,77,59,29.06,28.78,11,3,11,0.15
2013-4-9,52,48,44,45,42,40,88,82,71,29.14,28.97,6,2,6,0.12
2013-4-10,42,39,38,40,37,35,93,91,91,29.07,28.98,6,2,6,0.46
2013-4-11,38,37,36,35,34,33,92,90,89,29.02,28.83,9,2,9,0.05
2013-4-12,42,40,37,39,36,34,91,86,77,28.77,28.65,4,2,4,0.02
2013-4-13,40,38,36,31,29,28,80,71,67,29.05,28.88,7,3,7,0.01
2013-4-14,42,40,35,34,32,29,82,73,64,29.18,29.03,6,2,6,0.02
2013-4-15,69,62,44,54,50,38,82,66,55,29.03,28.96,16,8,16,0.02
2013-4-16,62,55,47,44,42,39,85,63,43,29.21,29.10,5,2,5,0.00
2013-4-17,64,54,44,41,38,31,82,56,41,29.40,29.20,5,2,5,0.40
2013-4-18,74,63,54,64,58,51,91,83,72,28.83,28.73,16,8,16,0.45
2013-4-19,43,40,37,38,32,30,88,73,64,28.80,28.52,10,5,10,0.00
2013-4-20,34,32,31,20,19,18,59,58,56,29.18,29.12,7,4,7,0.00
2013-4-21,48,40,37,28,24,23,59,54,46,29.55,29.53,2,2,2,0.00
2013-4-22,68,56,37,37,34,30,78,46,30,29.46,29.29,8,3,8,0.00
2013-4-23,71,62,53,51,45,36,86,56,40,29.15,28.92,13,6,13,0.16
2013-4-24,54,39,35,50,36,32,90,89,86,28.99,28.89,5,2,5,0.70
2013-4-25,48,43,39,42,35,28,84,75,59,29.39,29.16,7,4,7,0.09
2013-4-26,62,51,32,37,34,27,84,55,38,29.51,29.43,11,5,11,0.00
2013-4-27,66,51,38,41,37,33,81,63,39,29.40,29.34,6,3,6,0.00
2013-4-28,68,61,54,52,46,39,80,60,38,29.33,28.99,6,2,6,0.10
2013-4-29,71,61,55,55,53,52,89,77,55,29.03,28.99,3,1,3,0.00
2013-4-30,77,66,57,59,56,53,88,70,51,29.16,29.04,12,6,12,0.23
2013-5-1,88,79,66,61,59,52,73,51,36,29.31,29.28,6,3,6,0.00
2013-5-2,81,70,59,58,52,46,69,54,45,29.34,29.25,8,3,8,0.00
2013-5-3,85,76,62,56,51,41,53,43,26,29.22,29.17,6,3,6,0.00
2013-5-4,68,67,66,47,47,47,50,48,47,29.22,29.22,4,3,4,0.00
2013-5-5,73,69,61,38,36,34,36,31,28,29.14,29.13,2,2,2,0.00
2013-5-6,82,71,54,51,46,42,63,42,32,29.17,29.08,6,2,6,0.00
2013-5-7,84,73,57,54,52,41,65,48,34,29.16,29.10,5,2,5,0.00
2013-5-8,82,74,62,51,48,44,51,40,30,29.11,29.05,3,1,3,0.00
2013-5-9,83,76,67,56,51,46,64,43,32,29.07,29.00,4,2,4,0.01
2013-5-10,64,56,42,59,50,38,85,82,76,28.96,28.86,5,2,5,0.09
2013-5-11,49,45,42,44,41,38,86,85,83,28.96,28.93,1,1,1,0.00
2013-5-13,51,46,40,30,28,26,57,49,40,29.24,29.18,5,3,5,0.00
2013-5-14,79,66,54,51,44,36,62,46,37,29.03,28.85,6,3,6,0.00
2013-5-15,85,74,54,55,51,44,69,46,28,28.86,28.74,6,3,6,0.00
2013-5-16,83,72,52,50,47,41,66,43,29,29.00,28.91,3,1,3,0.00
2013-5-17,76,68,56,47,44,41,59,43,32,29.24,29.20,3,1,3,0.00
2013-5-18,72,69,66,47,47,46,49,46,42,29.23,29.23,1,1,1,0.00
2013-5-19,79,76,72,59,59,58,61,56,51,29.02,29.01,2,2,2,0.00
2013-5-20,71,66,62,64,60,57,83,81,78,29.03,29.01,2,1,2,0.00